www.pogodaiklimat.ru

Погода и климат >> Архив погоды >> Беларусь >> Столбцы


ПОГОДА в Столбцах

  • Прогноз погоды в Столбцах
  • Монитор погоды в Столбцах

АРХИВ ПОГОДЫ в Столбцах

Время (UTC), дата Ветер
(напр.,м/с)
 
Видим.   Явления Облачность Т
(С)
Тd
(С)
f
(%)
Тe
(С)
Тes
(С)
Комфортность P
(гПа)
Po
(гПа)
Тmin
(С)
Tmax
(С)
R
(мм)
R24
(мм)
S
(см)
18 10.02 Ю 2 5000 м дымка ясно +1.7 -0.9 83 -2 -2 1009.0 985.4 +6.2 5
21 10.02 Ю 3 н/о н/о +1.6 -0.8 84 -3 -3 1007.0 983.5
00 11.02 Ю 4 н/о н/о +2.0 -1.4 78 -3 -3 1004.0 980.6
03 11.02 Ю 4 н/о н/о +2.0 -1.6 77 -3 -3 1003.0 979.6 +1.3
06 11.02 Ю 4 10 км слаб. дождь 10/10 660 м
[Frnb Ns]
+1.8 -1.4 79 -3 -3 1001.0 977.6 +1.3 0.0 5
09 11.02 Ю 4 1400 м снег {дождь} 10/10 210 м
[Frnb Ns]
+0.3 -0.3 96 -5 -5 1001.0 977.5
12 11.02 Ю 4
{10}
1100 м снег {дождь} 10/10 210 м
[Frnb Ns]
+0.5 -0.2 95 -5 -5 1001.0 977.5
15 11.02 Ю 4 700 м туман {снег} ?/? +1.0 +1.0 100 -5 -5 1001.0 977.6
18 11.02 ЮЗ 2 600 м туман {снег} ?/? +1.8 +1.8 100 -2 -2 1002.0 978.6 +1.9 4 5
21 11.02 ЮЗ 2 н/о н/о +2.3 +1.7 96 -1 -1 1002.0 978.7
00 12.02 З 2 н/о н/о +1.8 +0.6 92 -2 -2 1003.0 979.6
03 12.02 СЗ 2 н/о н/о +1.4 -0.8 85 -2 -2 1004.0 980.5 +1.3
06 12.02 СЗ 3 9000 м дымка 9/9 420 м
[Cb calv]
+1.0 -1.2 85 -3 -3 1006.0 982.4 +0.7 0.6 5
09 12.02 СЗ 4
{10}
9000 м дымка 10/10 270 м
[St]
+0.5 -2.4 81 -5 -5 1008.0 984.3
12 12.02 СЗ 4 9000 м дымка 9/9 450 м
[Cb calv]
+1.0 -2.4 78 -4 -4 1010.0 986.3
15 12.02 СЗ 5 9000 м дымка 8/8 420 м
[Cb calv]
+0.4 -2.1 83 -6 -6 1012.0 988.2
18 12.02 С 5-11
{11}
5000 м дымка {снег} 9/9 400 м
[Cb calv]
-0.1 -3.8 76 -6 -6 1016.0 992.1 +1.1 0.3 5
21 12.02 С 3
{10}
н/о н/о -1.5 -5.5 74 -6 -6 1018.0 993.9
00 13.02 С 3 н/о н/о -0.9 -5.7 70 -5 -5 1019.0 995.0
03 13.02 СЗ 3 н/о н/о -1.1 -5.5 72 -6 -6 1020.0 995.9 -1.8
06 13.02 СЗ 3 9000 м дымка 8/8 450 м
[Cb calv]
-1.5 -6.1 71 -6 -6 1021.0 996.9 -1.8 5
09 13.02 СЗ 2 6000 м дымка 8/8 500 м
[Cb calv]
-0.5 -3.9 78 -4 -4 1020.0 996.0
12 13.02 З 3 5000 м слаб. ливневой снег 8/8 450 м
[Cb calv]
-0.5 -2.5 86 -5 -5 1018.0 994.0
15 13.02 З 2 1200 м снег {ливн. осадки} 10/10 300 м
[Frnb Ns]
-1.1 -1.7 96 -5 -5 1016.0 992.0
18 13.02 СЗ 1 1500 м слаб. дождь со снегом 10/10 270 м
[Frnb Ns]
0.0 -0.4 97 -2 -2 1015.0 991.1 +0.1 5 8
21 13.02 С 2 н/о н/о +0.7 +0.1 96 -3 -3 1018.0 994.1
00 14.02 СЗ 2 н/о н/о +0.7 -0.0 95 -3 -3 1021.0 997.1
03 14.02 С 2 н/о н/о +0.5 -0.1 96 -3 -3 1023.0 999.0 0.0
06 14.02 СЗ 2 9000 м дымка 10/10 240 м
[St]
+0.8 +0.1 95 -3 -3 1025.0 1001.0 0.0 1 10
09 14.02 СЗ 4 8000 м дымка 10/10 300 м
[St]
+0.7 -0.0 95 -5 -5 1027.0 1002.9
12 14.02 С 2 9000 м дымка 10/10 360 м
[St]
+1.8 +0.2 89 -2 -2 1028.0 1004.0
15 14.02 СЗ 2 9000 м дымка 8/0
[Ac trans]
+2.0 -0.3 85 -1 -1 1029.0 1005.0
18 14.02 СЗ 1 6000 м дымка 3/0
[Ac trans]
-0.9 -1.6 95 -3 -3 1030.0 1005.7 +2.3 5
21 14.02 штиль 0 н/о н/о -1.2 -1.8 96 -3 -3 1030.0 1005.7
00 15.02 СЗ 2 н/о н/о -0.3 -0.7 97 -4 -4 1030.0 1005.8
03 15.02 штиль 0 н/о н/о +0.5 +0.1 97 -1 -1 1030.0 1005.8 -2.1
06 15.02 СЗ 2 3600 м слаб. морось 10/10 210 м
[St]
+1.1 +0.7 97 -3 -3 1029.0 1004.9 -2.1 0.4 5
09 15.02 СЗ 1 4300 м дымка 9/9 240 м
[St]
+2.3 +1.7 96 0 0 1029.0 1005.0
12 15.02 СЗ 4 4200 м слаб. дождь {морось} 10/10 270 м
[Frnb Ns]
+3.2 +2.0 92 -2 -2 1027.0 1003.2
15 15.02 С 4 3800 м дымка {дождь} 9/9 270 м
[St]
+2.4 +1.7 95 -3 -3 1027.0 1003.1
18 15.02 СЗ 3 3100 м дымка {дождь} 10/10 210 м
[St]
+1.7 +1.1 96 -3 -3 1028.0 1004.0 +3.4 0.0 4
21 15.02 СЗ 3 н/о н/о +1.9 +1.5 97 -3 -3 1028.0 1004.0
00 16.02 СЗ 3 н/о н/о +1.8 +1.4 97 -3 -3 1027.0 1003.0
03 16.02 СЗ 3 н/о н/о +1.6 +1.2 97 -3 -3 1026.0 1002.0 +1.6
06 16.02 СЗ 2 3100 м дымка 10/10 270 м
[St]
+1.1 +0.7 97 -3 -3 1026.0 1002.0 +1.1 0.4 3
09 16.02 СЗ 3 9000 м дымка 10/10 330 м
[St]
+1.6 +1.2 97 -3 -3 1026.0 1002.0
12 16.02 СЗ 2 9000 м дымка 9/9 360 м
[St]
+2.6 +1.6 93 -1 -1 1025.0 1001.1
15 16.02 З 2 9000 м дымка 9/9 420 м
[Cb calv]
+2.2 +0.7 90 -1 -1 1024.0 1000.1
18 16.02 З 3 6000 м дымка 10/10 270 м
[St]
+1.1 +0.4 95 -4 -4 1023.0 999.1 +3.0 2
21 16.02 З 2 н/о н/о 0.0 -0.6 96 -4 -4 1021.0 997.0
00 17.02 З 3 н/о н/о +0.1 -1.6 88 -5 -5 1019.0 995.1
03 17.02 З 2 н/о н/о -0.1 -1.8 88 -4 -4 1017.0 993.1 -0.3
06 17.02 СЗ 1 4500 м дымка 10 баллов +1.1 -0.7 88 -1 -1 1017.0 993.2 -0.3 2
09 17.02 СЗ 3 6000 м дымка 10 баллов +3.4 +1.1 85 -1 -1 1018.0 994.4
12 17.02 СЗ 3 7000 м дымка 10 баллов +4.0 +1.7 85 0 0 1018.0 994.4
15 17.02 С 3 6000 м дымка 10 баллов +4.2 +1.7 84 +1 +1 1019.0 995.4

 

Местоположение метеостанции Столбцы (Минская область, Беларусь): широта 53.48 долгота 26.73 высота над уровнем моря 190 м.

В архиве по умолчанию представлена погода в Столбцах за последнюю неделю. Архивные данные за месяц целиком и за предыдущие месяцы, начиная с января 2011 года, Вы можете получить, выбрав интересующий диапазон дат из раскрывающегося списка и нажав кнопку "Ввод!".


*Определитесь, кто Вы:
робот инопланетянин человек

Внимание! Время в таблицах - всемирное. Для получения местного времени необходимо прибавить поправку, которая равна 3 ч.

Смотрите также архив погоды в соседних городах и на ближайших метеорологических станциях:

Погода в Новогрудке (Гродненская область, Беларусь) (60 км)
Погода в Барановичах (Брестская область, Беларусь) (64 км)
Погода в Воложине (Минская область, Беларусь) (69 км)
Погода в Слуцке (Минская область, Беларусь) (74 км)
Погода в Минске (город Минск, Беларусь) (83 км)
Погода в Ганцевичах (Брестская область, Беларусь) (83 км)
Погода в Марьиной Горке (Минская область, Беларусь) (93 км)
Погода в Лиде (Гродненская область, Беларусь) (104 км)
Погода в Вилейке (Минская область, Беларусь) (116 км)
Погода в Ошмянах (Гродненская область, Беларусь) (118 км)

Пояснения к столбцам:

Ветер - указаны скорость ветра в м/с - средняя за 10 мин, порывы в срок и между сроками (в фигурных скобках) и направление, откуда дует ветер: С - северный, СВ - северо-восточный, В - восточный, ЮВ - юго-восточный, Ю - южный, ЮЗ - юго-западный, З - западный, СЗ - северо-западный.
Видимость - горизонтальная дальность видимости в метрах или километрах. При видимости от 1 до 10 км при отсутствии осадков обычно наблюдается дымка, при ухудшении видимости до 1 км и менее - туман. В сухую погоду видимость может ухудшаться дымом, пылью или мглою.
Явления - указаны атмосферные явления, наблюдавшиеся в срок или в последний час перед сроком; фигурными скобками обозначены явления, наблюдавшиеся между сроками (за 1-3 часа до срока); квадратными скобками обозначены град или гололедные отложения с указанием их диаметра в мм.
Облачность - указаны через наклонную черту общая и нижняя облачность в баллах и высота нижней границы облаков в метрах; квадратными скобками обозначены формы облаков: Ci - перистые, Cs - перисто-слоистые, Cc - перисто-кучевые, Ac - высококучевые, As - высокослоистые, Sc - слоисто-кучевые, Ns - слоисто-дождевые, Cu - кучевые, Cb - кучево-дождевые. Подробнее классификацию облаков см. в Атласе облаков (PDF).
T - Температура воздуха - температура, измеренная на высоте 2 м над землей.
Td - Температура точки росы - температура, при понижении до которой содержащийся в воздухе водяной пар достигнет насыщения.
f - Относительная влажность воздуха - влажноcть воздуха, измеренная на высоте 2 м над землей.
Te - Эффективная температура - температура, которую ощущает одетый по сезону человек в тени. Характеристика душности погоды. При расчете учитывается влияние влажности воздуха и скорости ветра на теплоощущения человека.
Tes - Эффективная температура на солнце - температура, которую ощущает человек, с поправкой на солнечный нагрев. Характеристика знойности погоды. Зависит от высоты солнца над горизонтом, облачности и скорости ветра. Ночью, в пасмурную погоду, а также при ветре 12 м/с и более поправка равна нулю.
P - Атмосферное давление - приведенное к уровню моря атмосферное давление.
Po - Атмосферное давление - измеренное на уровне метеостанции атмосферное давление.
Tmin - Минимальная температура - минимум температуры воздуха на высоте 2 м над землей.
Tmax - Максимальная температура - максимум температуры воздуха на высоте 2 м над землей.
R - Количество осадков - Количество выпавших осадков за период времени, мм. При наведении курсора мыши на число - период времени, за который выпало указанное количество осадков.
R24 - Количество осадков - Количество выпавших осадков за 24 часа, мм.
S - Снежный покров - Высота снежного покрова, см. При наведении курсора мыши на число - состояние снежного покрова и степень покрытия местности в баллах.